| time (UTC) | temp F | wind direction | speed MPH | gust MPH | rain 1hr in | rain 24hr in | rain mn in | humidity % | barometer mb |
| 20260903004903 | 60 | 141 | 0.0 | 5.0 | 0.02 | 0.39 | 0.39 | 92 | 1007.2 |
| 20260903004402 | 60 | 154 | 2.0 | 5.0 | 0.02 | 0.39 | 0.39 | 92 | 1007.2 |
| 20260903003903 | 60 | 109 | 0.0 | 2.0 | 0.03 | 0.39 | 0.39 | 92 | 1007.2 |
| 20260903003403 | 60 | 166 | 0.0 | 2.0 | 0.02 | 0.38 | 0.38 | 92 | 1007.2 |
| 20260903001903 | 59 | 72 | 0.0 | 2.0 | 0.03 | 0.38 | 0.38 | 92 | 1007.2 |
| 20260903001403 | 59 | 166 | 0.0 | 2.0 | 0.03 | 0.38 | 0.38 | 92 | 1007.3 |
| 20260903000914 | 59 | 77 | 0.0 | 2.0 | 0.03 | 0.38 | 0.38 | 92 | 1007.1 |
| 20260903000403 | 59 | 156 | 0.0 | 2.0 | 0.02 | 0.37 | 0.37 | 92 | 1007.1 |
| 20260902235403 | 59 | 97 | 0.0 | 3.0 | 0.03 | 0.37 | 0.37 | 91 | 1007.2 |
| 20260902234903 | 59 | 8 | 0.0 | 3.0 | 0.03 | 0.37 | 0.37 | 92 | 1007.2 |
| 20260902234403 | 59 | 158 | 0.0 | 7.0 | 0.03 | 0.37 | 0.37 | 92 | 1007.1 |
| 20260902233903 | 59 | 148 | 2.0 | 7.0 | 0.02 | 0.36 | 0.36 | 91 | 1007.2 |
| 20260902232903 | 59 | 151 | 1.0 | 7.0 | 0.03 | 0.36 | 0.36 | 91 | 1007.1 |
| 20260902232403 | 59 | 293 | 0.0 | 7.0 | 0.03 | 0.36 | 0.36 | 91 | 1007.0 |
| 20260902231903 | 59 | 83 | 0.0 | 8.0 | 0.02 | 0.35 | 0.35 | 91 | 1006.9 |
| 20260902231403 | 59 | 144 | 2.0 | 8.0 | 0.03 | 0.35 | 0.35 | 91 | 1006.9 |
| 20260902230903 | 59 | 136 | 2.0 | 8.0 | 0.03 | 0.35 | 0.35 | 90 | 1006.8 |
| 20260902230403 | 59 | 144 | 1.0 | 5.0 | 0.03 | 0.35 | 0.35 | 90 | 1006.8 |
| 20260902225903 | 59 | 158 | 1.0 | 9.0 | 0.04 | 0.35 | 0.35 | 91 | 1006.9 |
| 20260902225402 | 59 | 131 | 2.0 | 9.0 | 0.03 | 0.34 | 0.34 | 91 | 1006.8 |
| 20260902224403 | 59 | 123 | 2.0 | 6.0 | 0.04 | 0.34 | 0.34 | 91 | 1006.8 |
| 20260902223903 | 59 | 134 | 1.0 | 7.0 | 0.04 | 0.34 | 0.34 | 91 | 1006.8 |
| 20260902223403 | 59 | 117 | 1.0 | 7.0 | 0.03 | 0.33 | 0.33 | 91 | 1006.8 |
| 20260902221903 | 58 | 97 | 3.0 | 7.0 | 0.04 | 0.33 | 0.33 | 91 | 1006.8 |
| 20260902220903 | 58 | 93 | 2.0 | 5.0 | 0.04 | 0.32 | 0.32 | 91 | 1006.8 |
| 20260902220403 | 58 | 100 | 1.0 | 7.0 | 0.05 | 0.32 | 0.32 | 91 | 1006.8 |
| 20260902215403 | 58 | 136 | 1.0 | 6.0 | 0.05 | 0.31 | 0.31 | 91 | 1006.8 |
| 20260902214904 | 58 | 91 | 2.0 | 7.0 | 0.05 | 0.31 | 0.31 | 91 | 1006.8 |
| 20260902213903 | 58 | 136 | 2.0 | 7.0 | 0.06 | 0.30 | 0.30 | 91 | 1006.8 |
| 20260902213403 | 58 | 86 | 2.0 | 6.0 | 0.06 | 0.30 | 0.30 | 91 | 1006.7 |
| 20260902212904 | 58 | 149 | 2.0 | 8.0 | 0.06 | 0.29 | 0.29 | 91 | 1006.8 |
| 20260902212404 | 58 | 81 | 3.0 | 8.0 | 0.07 | 0.29 | 0.29 | 91 | 1006.7 |
| 20260902211902 | 59 | 74 | 2.0 | 7.0 | 0.07 | 0.29 | 0.29 | 91 | 1006.7 |
| 20260902211403 | 59 | 113 | 1.0 | 7.0 | 0.07 | 0.28 | 0.28 | 91 | 1006.6 |
| 20260902210903 | 59 | 128 | 3.0 | 6.0 | 0.07 | 0.28 | 0.28 | 91 | 1006.6 |
| 20260902210403 | 59 | 121 | 1.0 | 5.0 | 0.07 | 0.27 | 0.27 | 91 | 1006.6 |
| 20260902205903 | 59 | 110 | 1.0 | 5.0 | 0.08 | 0.27 | 0.27 | 91 | 1006.5 |
| 20260902205403 | 59 | 107 | 1.0 | 7.0 | 0.07 | 0.26 | 0.26 | 91 | 1006.5 |
| 20260902204903 | 59 | 156 | 1.0 | 7.0 | 0.08 | 0.26 | 0.26 | 91 | 1006.5 |
| 20260902204403 | 59 | 87 | 2.0 | 7.0 | 0.08 | 0.25 | 0.25 | 91 | 1006.4 |
| 20260902203903 | 59 | 75 | 1.0 | 6.0 | 0.07 | 0.24 | 0.24 | 92 | 1006.4 |
| 20260902202903 | 58 | 109 | 1.0 | 5.0 | 0.07 | 0.23 | 0.23 | 91 | 1006.2 |
| 20260902202403 | 58 | 88 | 2.0 | 5.0 | 0.07 | 0.22 | 0.22 | 90 | 1006.4 |
| 20260902201903 | 59 | 132 | 0.0 | 2.0 | 0.08 | 0.22 | 0.22 | 90 | 1006.4 |
| 20260902201403 | 59 | 117 | 0.0 | 3.0 | 0.07 | 0.21 | 0.21 | 90 | 1006.5 |
| 20260902200903 | 59 | 163 | 0.0 | 6.0 | 0.08 | 0.21 | 0.21 | 89 | 1006.4 |
| 20260902200403 | 59 | 96 | 1.0 | 6.0 | 0.07 | 0.20 | 0.20 | 89 | 1006.5 |
| 20260902195903 | 59 | 148 | 2.0 | 3.0 | 0.07 | 0.19 | 0.19 | 89 | 1006.4 |
| 20260902194902 | 59 | 106 | 2.0 | 5.0 | 0.07 | 0.18 | 0.18 | 89 | 1006.5 |
| 20260902194402 | 59 | 83 | 0.0 | 3.0 | 0.07 | 0.17 | 0.17 | 90 | 1006.6 |
| 20260902193903 | 59 | 94 | 0.0 | 3.0 | 0.08 | 0.17 | 0.17 | 88 | 1006.5 |
| 20260902193403 | 59 | 104 | 0.0 | 5.0 | 0.08 | 0.16 | 0.16 | 89 | 1006.7 |
| 20260902192903 | 59 | 105 | 3.0 | 5.0 | 0.08 | 0.16 | 0.16 | 88 | 1006.7 |
| 20260902192403 | 59 | 84 | 1.0 | 5.0 | 0.08 | 0.15 | 0.15 | 88 | 1006.8 |
| 20260902191403 | 59 | 91 | 0.0 | 2.0 | 0.09 | 0.14 | 0.14 | 90 | 1007.0 |
| 20260902190903 | 59 | 101 | 0.0 | 3.0 | 0.09 | 0.13 | 0.13 | 90 | 1007.0 |
| 20260902190402 | 59 | 81 | 1.0 | 3.0 | 0.10 | 0.13 | 0.13 | 89 | 1007.1 |
| 20260902185403 | 59 | 100 | 1.0 | 3.0 | 0.09 | 0.11 | 0.11 | 88 | 1007.3 |
| 20260902184403 | 59 | 137 | 0.0 | 1.0 | 0.09 | 0.10 | 0.10 | 88 | 1007.4 |
| 20260902183902 | 60 | 105 | 0.0 | 1.0 | 0.08 | 0.09 | 0.09 | 86 | 1007.6 |
| 20260902182903 | 60 | 347 | 0.0 | 2.0 | 0.08 | 0.08 | 0.08 | 86 | 1007.6 |
| 20260902182403 | 60 | 243 | 0.0 | 2.0 | 0.07 | 0.07 | 0.07 | 87 | 1007.5 |
| 20260902181903 | 60 | 202 | 1.0 | 2.0 | 0.06 | 0.06 | 0.06 | 88 | 1007.5 |
| 20260902181403 | 60 | 298 | 0.0 | 0.0 | 0.05 | 0.05 | 0.05 | 86 | 1007.3 |
| 20260902180903 | 61 | 311 | 0.0 | 0.0 | 0.04 | 0.04 | 0.04 | 86 | 1007.2 |
| 20260902175904 | 61 | 307 | 0.0 | 0.0 | 0.02 | 0.02 | 0.02 | 85 | 1007.2 |
| 20260902175403 | 62 | 306 | 0.0 | 0.0 | 0.02 | 0.02 | 0.02 | 82 | 1007.0 |
| 20260902174903 | 62 | 333 | 0.0 | 0.0 | 0.01 | 0.01 | 0.01 | 79 | 1007.0 |
| 20260902174403 | 63 | 330 | 0.0 | 0.0 | 0.01 | 0.01 | 0.01 | 78 | 1007.0 |
| 20260902173903 | 64 | 321 | 0.0 | 0.0 | 0.01 | 0.01 | 0.01 | 76 | 1006.9 |
| 20260902173403 | 64 | 346 | 0.0 | 1.0 | 0.00 | 0.00 | 0.00 | 73 | 1006.8 |
| 20260902172903 | 65 | 351 | 0.0 | 1.0 | 0.00 | 0.00 | 0.00 | 70 | 1006.8 |
| 20260902172403 | 65 | 207 | 0.0 | 2.0 | 0.00 | 0.00 | 0.00 | 69 | 1006.8 |
| 20260902171403 | 66 | 230 | 0.0 | 2.0 | 0.00 | 0.00 | 0.00 | 64 | 1006.7 |
| 20260902170902 | 65 | 129 | 0.0 | 2.0 | 0.00 | 0.00 | 0.00 | 63 | 1006.7 |
| 20260902170403 | 65 | 74 | 1.0 | 3.0 | 0.00 | 0.00 | 0.00 | 63 | 1006.7 |
| 20260902165903 | 65 | 61 | 1.0 | 3.0 | 0.00 | 0.00 | 0.00 | 64 | 1006.7 |
| 20260902165403 | 65 | 85 | 0.0 | 3.0 | 0.00 | 0.00 | 0.00 | 64 | 1006.6 |
| 20260902164903 | 65 | 302 | 0.0 | 3.0 | 0.00 | 0.00 | 0.00 | 64 | 1006.6 |
| 20260902164403 | 65 | 187 | 1.0 | 5.0 | 0.00 | 0.00 | 0.00 | 64 | 1006.6 |
| 20260902163903 | 65 | 124 | 1.0 | 5.0 | 0.00 | 0.00 | 0.00 | 64 | 1006.6 |
| 20260902163403 | 65 | 69 | 1.0 | 5.0 | 0.00 | 0.00 | 0.00 | 66 | 1006.7 |
| 20260902162903 | 64 | 148 | 0.0 | 1.0 | 0.00 | 0.00 | 0.00 | 67 | 1006.7 |
| 20260902162403 | 64 | 284 | 0.0 | 3.0 | 0.00 | 0.00 | 0.00 | 67 | 1006.7 |
| 20260902161903 | 64 | 200 | 0.0 | 6.0 | 0.00 | 0.00 | 0.00 | 67 | 1006.7 |
| 20260902161403 | 64 | 63 | 2.0 | 6.0 | 0.00 | 0.00 | 0.00 | 67 | 1006.7 |
| 20260902160903 | 64 | 59 | 1.0 | 5.0 | 0.00 | 0.00 | 0.00 | 67 | 1006.7 |
| 20260902160403 | 64 | 40 | 1.0 | 6.0 | 0.00 | 0.00 | 0.00 | 67 | 1006.8 |
| 20260902155903 | 64 | 163 | 1.0 | 7.0 | 0.00 | 0.00 | 0.00 | 66 | 1006.7 |
| 20260902155403 | 64 | 30 | 1.0 | 7.0 | 0.00 | 0.00 | 0.00 | 67 | 1006.7 |
| 20260902154904 | 64 | 87 | 1.0 | 6.0 | 0.00 | 0.00 | 0.00 | 68 | 1006.7 |
| 20260902153903 | 64 | 99 | 1.0 | 6.0 | 0.00 | 0.00 | 0.00 | 68 | 1006.9 |
| 20260902152903 | 63 | 108 | 0.0 | 3.0 | 0.00 | 0.00 | 0.00 | 69 | 1007.0 |
| 20260902152403 | 63 | 85 | 1.0 | 5.0 | 0.00 | 0.00 | 0.00 | 71 | 1007.1 |
| 20260902151403 | 62 | 121 | 0.0 | 2.0 | 0.00 | 0.00 | 0.00 | 72 | 1007.1 |
| 20260902150403 | 62 | 102 | 0.0 | 3.0 | 0.00 | 0.00 | 0.00 | 71 | 1007.3 |
| 20260902145903 | 62 | 97 | 1.0 | 5.0 | 0.00 | 0.00 | 0.00 | 72 | 1007.3 |
| 20260902145403 | 62 | 89 | 1.0 | 5.0 | 0.00 | 0.00 | 0.00 | 72 | 1007.4 |
| 20260902144903 | 62 | 108 | 1.0 | 6.0 | 0.00 | 0.00 | 0.00 | 72 | 1007.5 |
| 20260902144403 | 62 | 80 | 0.0 | 6.0 | 0.00 | 0.00 | 0.00 | 73 | 1007.5 |
| 20260902143403 | 61 | 90 | 0.0 | 3.0 | 0.00 | 0.00 | 0.00 | 72 | 1007.7 |
| 20260902142903 | 61 | 96 | 0.0 | 3.0 | 0.00 | 0.00 | 0.00 | 73 | 1007.8 |
| 20260902142402 | 61 | 88 | 0.0 | 3.0 | 0.00 | 0.00 | 0.00 | 73 | 1007.8 |
| 20260902141903 | 61 | 88 | 2.0 | 3.0 | 0.00 | 0.00 | 0.00 | 72 | 1007.9 |
| 20260902141403 | 61 | 86 | 1.0 | 3.0 | 0.00 | 0.00 | 0.00 | 73 | 1008.0 |
| 20260902140903 | 61 | 87 | 0.0 | 3.0 | 0.00 | 0.00 | 0.00 | 73 | 1008.1 |
| 20260902140403 | 61 | 118 | 1.0 | 5.0 | 0.00 | 0.00 | 0.00 | 73 | 1008.2 |
| 20260902135903 | 61 | 112 | 2.0 | 5.0 | 0.00 | 0.00 | 0.00 | 73 | 1008.3 |
| 20260902135403 | 61 | 113 | 0.0 | 3.0 | 0.00 | 0.00 | 0.00 | 74 | 1008.4 |
| 20260902134903 | 61 | 84 | 1.0 | 3.0 | 0.00 | 0.00 | 0.00 | 74 | 1008.4 |
| 20260902134403 | 60 | 113 | 1.0 | 3.0 | 0.00 | 0.00 | 0.00 | 74 | 1008.4 |
| 20260902133903 | 60 | 73 | 1.0 | 3.0 | 0.00 | 0.00 | 0.00 | 74 | 1008.5 |
| 20260902133403 | 60 | 126 | 1.0 | 3.0 | 0.00 | 0.00 | 0.00 | 75 | 1008.5 |
| 20260902132903 | 60 | 93 | 0.0 | 2.0 | 0.00 | 0.00 | 0.00 | 74 | 1008.6 |
| 20260902132403 | 60 | 95 | 0.0 | 3.0 | 0.00 | 0.00 | 0.00 | 74 | 1008.7 |
| 20260902131903 | 60 | 87 | 0.0 | 3.0 | 0.00 | 0.00 | 0.00 | 75 | 1008.7 |
| 20260902131403 | 60 | 129 | 0.0 | 2.0 | 0.00 | 0.00 | 0.00 | 75 | 1008.8 |
| 20260902130904 | 60 | 102 | 0.0 | 2.0 | 0.00 | 0.00 | 0.00 | 75 | 1008.8 |
| 20260902130403 | 60 | 94 | 1.0 | 2.0 | 0.00 | 0.00 | 0.00 | 75 | 1008.9 |
| 20260902125904 | 60 | 112 | 0.0 | 2.0 | 0.00 | 0.00 | 0.00 | 75 | 1009.0 |
| 20260902125402 | 61 | 57 | 1.0 | 3.0 | 0.00 | 0.00 | 0.00 | 75 | 1009.1 |
| 20260902124903 | 61 | 104 | 0.0 | 5.0 | 0.00 | 0.00 | 0.00 | 75 | 1009.2 |
| 20260902124404 | 61 | 108 | 1.0 | 5.0 | 0.00 | 0.00 | 0.00 | 75 | 1009.3 |
| 20260902123403 | 61 | 116 | 0.0 | 2.0 | 0.00 | 0.00 | 0.00 | 75 | 1009.3 |
| 20260902122904 | 60 | 127 | 1.0 | 2.0 | 0.00 | 0.00 | 0.00 | 75 | 1009.4 |
| 20260902122403 | 60 | 90 | 1.0 | 2.0 | 0.00 | 0.00 | 0.00 | 75 | 1009.4 |
| 20260902121902 | 60 | 105 | 0.0 | 2.0 | 0.00 | 0.00 | 0.00 | 75 | 1009.5 |
| 20260902121403 | 60 | 87 | 1.0 | 5.0 | 0.00 | 0.00 | 0.00 | 75 | 1009.5 |
| 20260902120903 | 60 | 74 | 0.0 | 5.0 | 0.00 | 0.00 | 0.00 | 76 | 1009.6 |
| 20260902120403 | 60 | 75 | 2.0 | 5.0 | 0.00 | 0.00 | 0.00 | 76 | 1009.6 |
| 20260902115903 | 60 | 103 | 0.0 | 3.0 | 0.00 | 0.00 | 0.00 | 76 | 1009.7 |
| 20260902115403 | 60 | 113 | 1.0 | 3.0 | 0.00 | 0.00 | 0.00 | 76 | 1009.6 |
| 20260902114903 | 60 | 92 | 1.0 | 3.0 | 0.00 | 0.00 | 0.00 | 77 | 1009.7 |
| 20260902114403 | 60 | 97 | 1.0 | 2.0 | 0.00 | 0.00 | 0.00 | 77 | 1009.8 |
| 20260902113903 | 60 | 78 | 0.0 | 0.0 | 0.00 | 0.00 | 0.00 | 77 | 1009.8 |
| 20260902113403 | 60 | 92 | 0.0 | 1.0 | 0.00 | 0.00 | 0.00 | 77 | 1009.9 |
| 20260902112903 | 60 | 84 | 0.0 | 2.0 | 0.00 | 0.00 | 0.00 | 77 | 1009.9 |
| 20260902111904 | 60 | 102 | 0.0 | 2.0 | 0.00 | 0.00 | 0.00 | 77 | 1010.1 |
| 20260902110903 | 60 | 89 | 0.0 | 3.0 | 0.00 | 0.00 | 0.00 | 77 | 1010.1 |
| 20260902110403 | 60 | 74 | 1.0 | 3.0 | 0.00 | 0.00 | 0.00 | 77 | 1010.1 |
| 20260902105903 | 60 | 88 | 1.0 | 3.0 | 0.00 | 0.00 | 0.00 | 76 | 1010.2 |
| 20260902105404 | 60 | 89 | 0.0 | 1.0 | 0.00 | 0.00 | 0.00 | 77 | 1010.2 |
| 20260902104904 | 60 | 95 | 0.0 | 3.0 | 0.00 | 0.00 | 0.00 | 77 | 1010.2 |
| 20260902103903 | 60 | 100 | 0.0 | 1.0 | 0.00 | 0.00 | 0.00 | 76 | 1010.3 |
| 20260902103403 | 60 | 66 | 1.0 | 2.0 | 0.00 | 0.00 | 0.00 | 77 | 1010.4 |
| 20260902102904 | 60 | 61 | 0.0 | 3.0 | 0.00 | 0.00 | 0.00 | 76 | 1010.5 |
| 20260902102404 | 60 | 103 | 0.0 | 3.0 | 0.00 | 0.00 | 0.00 | 76 | 1010.4 |
| 20260902101403 | 61 | 75 | 0.0 | 3.0 | 0.00 | 0.00 | 0.00 | 76 | 1010.5 |
| 20260902100904 | 61 | 65 | 0.0 | 5.0 | 0.00 | 0.00 | 0.00 | 77 | 1010.5 |
| 20260902095904 | 61 | 121 | 2.0 | 6.0 | 0.00 | 0.00 | 0.00 | 77 | 1010.5 |
| 20260902095403 | 61 | 115 | 1.0 | 5.0 | 0.00 | 0.00 | 0.00 | 77 | 1010.6 |
| 20260902094903 | 60 | 95 | 0.0 | 5.0 | 0.00 | 0.00 | 0.00 | 77 | 1010.6 |
| 20260902094403 | 60 | 107 | 0.0 | 3.0 | 0.00 | 0.00 | 0.00 | 77 | 1010.7 |
| 20260902093903 | 60 | 121 | 0.0 | 3.0 | 0.00 | 0.00 | 0.00 | 77 | 1010.6 |
| 20260902093403 | 60 | 85 | 1.0 | 3.0 | 0.00 | 0.00 | 0.00 | 77 | 1010.7 |
| 20260902092903 | 60 | 143 | 0.0 | 2.0 | 0.00 | 0.00 | 0.00 | 77 | 1010.8 |
| 20260902091903 | 61 | 145 | 0.0 | 2.0 | 0.00 | 0.00 | 0.00 | 76 | 1010.8 |
| 20260902091403 | 61 | 118 | 0.0 | 3.0 | 0.00 | 0.00 | 0.00 | 76 | 1010.9 |
| 20260902090903 | 61 | 136 | 0.0 | 3.0 | 0.00 | 0.00 | 0.00 | 76 | 1010.9 |
| 20260902090403 | 61 | 142 | 0.0 | 3.0 | 0.00 | 0.00 | 0.00 | 76 | 1011.0 |
| 20260902085903 | 61 | 129 | 1.0 | 3.0 | 0.00 | 0.00 | 0.00 | 76 | 1011.1 |
| 20260902085404 | 61 | 138 | 0.0 | 5.0 | 0.00 | 0.00 | 0.00 | 76 | 1011.1 |
| 20260902084403 | 61 | 149 | 1.0 | 2.0 | 0.00 | 0.00 | 0.00 | 75 | 1011.1 |
| 20260902083904 | 62 | 118 | 0.0 | 1.0 | 0.00 | 0.00 | 0.00 | 75 | 1011.0 |
| 20260902083403 | 62 | 127 | 0.0 | 1.0 | 0.00 | 0.00 | 0.00 | 75 | 1011.0 |
| 20260902082903 | 62 | 165 | 0.0 | 0.0 | 0.00 | 0.00 | 0.00 | 75 | 1010.9 |
| 20260902082403 | 62 | 165 | 0.0 | 2.0 | 0.00 | 0.00 | 0.00 | 74 | 1010.8 |
| 20260902081903 | 62 | 134 | 0.0 | 2.0 | 0.00 | 0.00 | 0.00 | 74 | 1010.8 |
| 20260902081403 | 62 | 147 | 1.0 | 5.0 | 0.00 | 0.00 | 0.00 | 74 | 1010.9 |
| 20260902080902 | 62 | 167 | 2.0 | 5.0 | 0.00 | 0.00 | 0.00 | 74 | 1011.0 |
| 20260902080403 | 62 | 132 | 1.0 | 2.0 | 0.00 | 0.00 | 0.00 | 74 | 1011.0 |
| 20260902075903 | 62 | 142 | 0.0 | 2.0 | 0.00 | 0.00 | 0.00 | 74 | 1011.0 |
| 20260902075403 | 62 | 98 | 0.0 | 1.0 | 0.00 | 0.00 | 0.00 | 74 | 1011.0 |
| 20260902074903 | 62 | 126 | 0.0 | 3.0 | 0.00 | 0.00 | 0.00 | 74 | 1011.1 |
| 20260902074402 | 62 | 143 | 0.0 | 3.0 | 0.00 | 0.00 | 0.00 | 74 | 1011.1 |
| 20260902073404 | 62 | 113 | 0.0 | 2.0 | 0.00 | 0.00 | 0.00 | 73 | 1011.1 |
| 20260902072903 | 62 | 54 | 0.0 | 2.0 | 0.00 | 0.00 | 0.00 | 73 | 1011.2 |
| 20260902072403 | 62 | 117 | 0.0 | 2.0 | 0.00 | 0.00 | 0.00 | 73 | 1011.4 |
| 20260902071903 | 62 | 227 | 0.0 | 3.0 | 0.00 | 0.00 | 0.00 | 73 | 1011.4 |
| 20260902071404 | 62 | 131 | 0.0 | 3.0 | 0.00 | 0.00 | 0.00 | 73 | 1011.5 |
| 20260902065903 | 62 | 204 | 1.0 | 5.0 | 0.00 | 0.00 | 0.00 | 73 | 1011.4 |
| 20260902065403 | 62 | 131 | 2.0 | 3.0 | 0.00 | 0.00 | 0.00 | 73 | 1011.5 |
| 20260902064903 | 62 | 142 | 0.0 | 3.0 | 0.00 | 0.00 | 0.00 | 73 | 1011.4 |
| 20260902064404 | 62 | 168 | 1.0 | 3.0 | 0.00 | 0.00 | 0.00 | 73 | 1011.5 |
| 20260902063903 | 62 | 163 | 0.0 | 2.0 | 0.00 | 0.00 | 0.00 | 73 | 1011.5 |
| 20260902063403 | 62 | 144 | 0.0 | 2.0 | 0.00 | 0.00 | 0.00 | 73 | 1011.4 |
| 20260902062903 | 62 | 160 | 0.0 | 3.0 | 0.00 | 0.00 | 0.00 | 73 | 1011.4 |
| 20260902062403 | 63 | 178 | 1.0 | 3.0 | 0.00 | 0.00 | 0.00 | 73 | 1011.4 |
| 20260902061903 | 63 | 129 | 0.0 | 3.0 | 0.00 | 0.00 | 0.00 | 73 | 1011.4 |
| 20260902061403 | 63 | 115 | 0.0 | 3.0 | 0.00 | 0.00 | 0.00 | 73 | 1011.4 |
| 20260902060903 | 63 | 114 | 0.0 | 2.0 | 0.00 | 0.00 | 0.00 | 73 | 1011.4 |
| 20260902060403 | 63 | 141 | 0.0 | 3.0 | 0.00 | 0.00 | 0.00 | 73 | 1011.6 |
| 20260902055903 | 63 | 165 | 1.0 | 3.0 | 0.00 | 0.00 | 0.00 | 72 | 1011.6 |
| 20260902055403 | 63 | 266 | 2.0 | 5.0 | 0.00 | 0.00 | 0.00 | 72 | 1011.7 |
| 20260902054403 | 63 | 215 | 1.0 | 5.0 | 0.00 | 0.00 | 0.00 | 72 | 1011.7 |
| 20260902053903 | 63 | 202 | 2.0 | 5.0 | 0.00 | 0.00 | 0.00 | 72 | 1011.8 |
| 20260902052904 | 63 | 248 | 1.0 | 5.0 | 0.00 | 0.00 | 0.00 | 71 | 1011.7 |
| 20260902052403 | 63 | 161 | 0.0 | 5.0 | 0.00 | 0.00 | 0.00 | 71 | 1011.7 |
| 20260902051903 | 63 | 240 | 0.0 | 2.0 | 0.00 | 0.00 | 0.00 | 71 | 1011.6 |
| 20260902051403 | 64 | 244 | 1.0 | 2.0 | 0.00 | 0.00 | 0.00 | 71 | 1011.6 |
| 20260902050403 | 64 | 234 | 0.0 | 2.0 | 0.00 | 0.00 | 0.00 | 71 | 1011.4 |
| 20260902045903 | 64 | 217 | 0.0 | 2.0 | 0.00 | 0.00 | 0.00 | 70 | 1011.5 |
| 20260902045403 | 64 | 232 | 0.0 | 2.0 | 0.00 | 0.00 | 0.00 | 71 | 1011.5 |
| 20260902044903 | 64 | 184 | 0.0 | 2.0 | 0.00 | 0.00 | 0.00 | 70 | 1011.4 |
| 20260902044403 | 64 | 220 | 1.0 | 2.0 | 0.00 | 0.00 | 0.00 | 70 | 1011.4 |
| 20260902043903 | 64 | 225 | 0.0 | 5.0 | 0.00 | 0.00 | 0.00 | 70 | 1011.4 |
| 20260902042903 | 64 | 199 | 0.0 | 2.0 | 0.00 | 0.00 | 0.00 | 69 | 1011.5 |
| 20260902042403 | 64 | 246 | 0.0 | 2.0 | 0.00 | 0.00 | 0.00 | 70 | 1011.4 |
| 20260902041903 | 64 | 168 | 0.0 | 2.0 | 0.00 | 0.00 | 0.00 | 69 | 1011.4 |
| 20260902041403 | 64 | 216 | 1.0 | 2.0 | 0.00 | 0.00 | 0.00 | 69 | 1011.4 |
| 20260902040903 | 65 | 238 | 0.0 | 7.0 | 0.00 | 0.00 | 0.00 | 69 | 1011.4 |
| 20260902040403 | 65 | 179 | 1.0 | 7.0 | 0.00 | 0.00 | 0.00 | 69 | 1011.3 |
| 20260902035403 | 65 | 248 | 0.0 | 2.0 | 0.00 | 0.00 | 0.00 | 69 | 1011.2 |
| 20260902033903 | 65 | 206 | 1.0 | 3.0 | 0.00 | 0.00 | 0.00 | 69 | 1011.1 |
| 20260902032903 | 65 | 201 | 2.0 | 5.0 | 0.00 | 0.00 | 0.00 | 68 | 1011.0 |
| 20260902032403 | 65 | 290 | 1.0 | 3.0 | 0.00 | 0.00 | 0.00 | 68 | 1011.1 |
| 20260902031903 | 65 | 226 | 0.0 | 1.0 | 0.00 | 0.00 | 0.00 | 68 | 1011.1 |
| 20260902031403 | 65 | 287 | 0.0 | 2.0 | 0.00 | 0.00 | 0.00 | 68 | 1011.1 |
| 20260902030903 | 65 | 276 | 0.0 | 2.0 | 0.00 | 0.00 | 0.00 | 68 | 1011.1 |
| 20260902030403 | 65 | 209 | 1.0 | 2.0 | 0.00 | 0.00 | 0.00 | 67 | 1011.1 |
| 20260902025904 | 65 | 204 | 0.0 | 2.0 | 0.00 | 0.00 | 0.00 | 68 | 1011.1 |
| 20260902025403 | 65 | 230 | 0.0 | 2.0 | 0.00 | 0.00 | 0.00 | 68 | 1011.1 |
| 20260902024903 | 66 | 292 | 0.0 | 2.0 | 0.00 | 0.00 | 0.00 | 68 | 1011.0 |
| 20260902024403 | 66 | 306 | 0.0 | 2.0 | 0.00 | 0.00 | 0.00 | 68 | 1010.9 |
| 20260902023903 | 66 | 273 | 0.0 | 2.0 | 0.00 | 0.00 | 0.00 | 67 | 1011.0 |
| 20260902023403 | 66 | 239 | 0.0 | 2.0 | 0.00 | 0.00 | 0.00 | 67 | 1011.0 |
| 20260902022904 | 66 | 250 | 0.0 | 2.0 | 0.00 | 0.00 | 0.00 | 67 | 1010.9 |
| 20260902022403 | 66 | 259 | 0.0 | 2.0 | 0.00 | 0.00 | 0.00 | 66 | 1010.9 |
| 20260902020903 | 67 | 232 | 0.0 | 0.0 | 0.00 | 0.00 | 0.00 | 66 | 1010.9 |
| 20260902020403 | 67 | 240 | 0.0 | 0.0 | 0.00 | 0.00 | 0.00 | 65 | 1010.8 |
| 20260902015903 | 67 | 308 | 0.0 | 0.0 | 0.00 | 0.00 | 0.00 | 64 | 1010.9 |
| 20260902014904 | 67 | 159 | 0.0 | 3.0 | 0.00 | 0.00 | 0.00 | 64 | 1010.8 |
| 20260902014403 | 67 | 162 | 0.0 | 2.0 | 0.00 | 0.00 | 0.00 | 64 | 1010.8 |
| 20260902013903 | 67 | 180 | 0.0 | 2.0 | 0.00 | 0.00 | 0.00 | 65 | 1010.8 |
| 20260902013404 | 67 | 229 | 1.0 | 3.0 | 0.00 | 0.00 | 0.00 | 64 | 1010.8 |
| 20260902012903 | 67 | 65 | 0.0 | 5.0 | 0.00 | 0.00 | 0.00 | 64 | 1010.8 |
| 20260902012403 | 67 | 192 | 0.0 | 5.0 | 0.00 | 0.00 | 0.00 | 64 | 1010.8 |
| 20260902011903 | 67 | 239 | 0.0 | 2.0 | 0.00 | 0.00 | 0.00 | 63 | 1010.8 |
| 20260902010903 | 68 | 254 | 1.0 | 2.0 | 0.00 | 0.00 | 0.00 | 64 | 1010.7 |
| 20260902010403 | 68 | 161 | 0.0 | 2.0 | 0.00 | 0.00 | 0.00 | 64 | 1010.6 |
| 20260902005904 | 68 | 178 | 0.0 | 2.0 | 0.00 | 0.00 | 0.00 | 64 | 1010.6 |
| 20260902005403 | 68 | 171 | 0.0 | 1.0 | 0.00 | 0.00 | 0.00 | 64 | 1010.5 |